Location: Flitcham
(52.8000°N, 0.5667°E)
Time: 10:40:37
(UTC+00:00)

CZ-4C R/B - Pass Details

Date: 15 May 2026
Orbit: 474 x 1503 km, 63.4° (Epoch: 6 June)

Event Time Altitude Azimuth Distance (km) Brightness Sun altitude
Rises 22:41:51 0° 286° (WNW) 3,084 5.6 -16.5°
Reaches altitude 10° 22:44:14 10° 298° (WNW) 2,307 5.1 -16.6°
Maximum altitude 22:48:58 30° 0° (N) 1,560 4.3 -16.8°
Drops below altitude 10° 22:54:56 10° 60° (ENE) 2,942 5.2 -17.0°
Sets 22:58:22 0° 71° (ENE) 4,085 5.8 -17.1°
